Flag for Turkey Weather past 2 weeks in Samsun, Turkey

Now
64 °F

Passing clouds.


Feels Like: 64 °F
Forecast: 64 / 77 °F
Wind: 2 mph from North

Location: Samsun / Carsamba

Current Time: Sep 17, 2014 at 12:33:04 AM

Latest Report: Sep 16, 2014 at 11:50 PM


Visibility: N/A

Pressure: 29.89 "Hg

Humidity: 83%

Dew point: 59 °F

Location of SamsunLocation

Historic Weather in Samsun — Graph

°F

Samsun temperature yesterday

Maximum temperature yesterday: 79 °F (at 11:50 AM)
Minimum temperature yesterday: 63 °F (at 1:50 AM)
Average temperature yesterday: 70 °F

Past Weeks' High & Low Weather Summary

 TemperatureHumidityPressure
High86 °F (Sep 4, 1:50 PM)100% (Sep 3, 12:50 AM)30.04 "Hg (Sep 3, 12:50 AM)
Low57 °F (Sep 15, 4:50 AM)45% (Sep 16, 12:50 PM)29.65 "Hg (Sep 6, 1:50 PM)
Average72 °F81%29.86 "Hg
* Reported Sep 1 10:50 PM — Sep 16 10:50 PM, Samsun, Weather by CustomWeather, © 2014

Note: Actual official high and low records may vary slightly from our data, if they occured in-between our weather recording intervals... More about our weather records

Advertising

Samsun weather history for previous 24 hours

 ConditionsComfort  
Time TempWeatherWind HumidityBarometerVisibility
10:50 PM
Sep 16
64 °FPassing clouds.1 mph83%29.89 "HgN/A
9:50 PM64 °FPassing clouds.3 mph88%29.92 "HgN/A
8:50 PM64 °FPassing clouds.No wind88%29.92 "HgN/A
7:50 PM66 °FPassing clouds.No wind83%29.89 "HgN/A
6:50 PM72 °FScattered clouds.3 mph65%29.89 "HgN/A
5:50 PM75 °FScattered clouds.6 mph57%29.89 "HgN/A
4:50 PM77 °FScattered clouds.9 mph54%29.89 "HgN/A
3:50 PM77 °FScattered clouds.9 mph57%29.86 "HgN/A
2:50 PM77 °FScattered clouds.12 mph65%29.86 "HgN/A
1:50 PM79 °FScattered clouds.8 mph54%29.86 "HgN/A
12:50 PM79 °FPassing clouds.7 mph45%29.86 "HgN/A
11:50 AM79 °FPassing clouds.7 mph54%29.86 "HgN/A
9:50 AM75 °FScattered clouds.7 mph65%29.89 "HgN/A
8:50 AM73 °FBroken clouds.6 mph69%29.89 "HgN/A
7:50 AM70 °FBroken clouds.3 mph83%29.89 "HgN/A
6:50 AM66 °FPartly cloudy.3 mph94%29.89 "HgN/A
5:50 AM66 °FPartly cloudy.1 mph88%29.89 "HgN/A
4:50 AM64 °FPartly cloudy.2 mph94%29.86 "HgN/A
3:50 AM63 °FPartly cloudy.2 mph94%29.86 "HgN/A
2:50 AM64 °FPartly cloudy.2 mph94%29.86 "HgN/A
1:50 AM63 °FPassing clouds.2 mph94%29.89 "HgN/A
12:50 AM64 °FPassing clouds.1 mph94%29.86 "HgN/A
Weather by CustomWeather, © 2014

See weather overviewHow to use our weather pages